sat.trackr.live / text

‹ back to catalog

STARLINK-33747

NORAD 63444 · 2025-069M

PAYLOAD ACTIVE UNKNOWN

§ Identity

Operator
Country
US
Launch date
2025-04-04
Launch site
AFWTR
Launch vehicle
Mass (kg)
RCS (m²)

Purposes: comms

External: N2YO · Heavens-Above · Gunter

§ Orbital elements

Epoch: 2026-09-20T10:50:26.610432Z

Period
93.85 min
Inclination
53.1599°
Eccentricity
0.0001084
Mean motion
15.34406688 rev/d
Perigee alt
461.9 km
Apogee alt
463.4 km
Semi-major
6,840.8 km
B*
3.5504e-4
RAAN
310.0110°
Arg perigee
73.6300°
Mean anomaly
286.4822°
Rev number
8,327

§ Raw data

STARLINK-337471 63444U 25069M   26263.45169688  .00011640  00000+0  35504-3 0  99902 63444  53.1599 310.0110 0001084  73.6300 286.4822 15.34406688 83270

JSON: /api/v1/satellites/63444 · /tle

For live sub-satellite position, see the globe view (requires WebGL).

§ Visibility from observer

Set your observer location to see the next 7 days of passes ≥ 10°. The values pass through the URL so the page stays shareable.

No JS? Fill the form by hand. The geolocation button needs JavaScript.